Погода в Оссоре

Россия / Камчатский край     59°15′05″N   163°04′28″E
темп.,
°C
ветер,
м/с
пор.,
м/с
влажн.,
%
обл.,
%
осадки,
мм/ч
давл.,
гПа
погр.,
м
13 августа, сб
сб1300:00+11юз11953 0.0 101047
03:00+11ссз01975 0.0 101029
06:00+11св119612 0.0 101128
09:00+15ссв228962 0.0 1011325
12:00+17всв227994 0.0 1011514
15:00+18в217657 0.0 1011587
18:00+17вюв228037 0.0 1010359
21:00+12ююз11955 0.0 101228
14 августа, вс
вс1400:00+12ююз119467 0.0 101215
03:00+11ююз129594 0.0 101344
06:00+12ююз1194100 0.0 101346
09:00+15ююв2184100 0.0 1014265
12:00+17ююв447685 0.0 1014513
15:00+17ююв4478100 0.0 1014517
18:00+16ю448090 0.0 1015356
21:00+12ю22925 0.0 101556
15 августа, пн
пн1500:00+11юз119694 0.0 101651
03:00+11ююз1197100 0.0 101559
06:00+13ююв1295100 0.0 1015145
09:00+13ююв4694100 0.1 1014523
12:00+13ю5793100 0.4 1014613
15:00+13ююв6897100 0.4 1012608
18:00+13ююв6997100 1.9 1011603
21:00+13ююв4797100 1.3 1011485
16 августа, вт
вт1600:00+12вюв3497100 2.5 1009295
03:00+12всв3397100 0.6 1006168
06:00+12св3498100 2.8 1003234
09:00+12св3598100 3.9 1000370
12:00+13св2398100 5.3 996309
15:00+13св2297100 0.4 994256
18:00+14с2397100 0.8 993233
21:00+13с4597100 0.3 994267
17 августа, ср
ср1700:00+13с6797100 0.9 994379
03:00+12ссз5795100 0.6 996402
06:00+12ссз4794100 1.4 998387
09:00+12ссв5793100 0.9 1001464
12:00+12всв4693100 2.3 1003458
15:00+11вюв3492100 0.8 1004369
18:00+11ююз2395100 2.3 1005173
21:00+10ююз2494100 0.6 1006194